Location: Seasalter
(51.3333°N, 1.0167°E)
Time: 04:46:20
(UTC+00:00)

ATLAS 5 CENTAUR R/B - Pass Details

Date: 29 April 2024
Orbit: 421 x 1170 km, 63.3° (Epoch: 18 May)

Event Time Altitude Azimuth Distance (km) Brightness Sun altitude
Rises 00:39:19 0° 313° (NW) 2,927 5.4 -23.3°
Reaches altitude 10° 00:41:26 10° 308° (NW) 2,119 4.6 -23.3°
Maximum altitude 00:46:11 55° 232° (SW) 938 2.1 -23.1°
Enters shadow 00:46:24 55° 222° (SW) 948 2.1 -23.1°
